EW3714 Weather Reports


Display with metric or nautical units.
time (UTC)temp
F
wind
direction
speed
MPH
gust
MPH
rain 1hr
in
rain 24hr
in
rain mn
in
humidity
%
barometer
mb
20260902101702 79 282 0.0 1.0 0.00 0.00 0.00 75 1015.5
20260902101202 80 347 1.0 2.0 0.00 0.00 0.00 75 1015.6
20260902100656 80 40 0.0 2.0 0.00 0.00 0.00 75 1015.4
20260902100151 80 5 0.0 1.0 0.00 0.00 0.00 75 1015.4
20260902095650 80 315 0.0 2.0 0.00 0.00 0.00 74 1015.5
20260902095149 80 37 0.0 1.0 0.00 0.00 0.00 74 1015.4
20260902094644 80 8 0.0 1.0 0.00 0.00 0.00 74 1015.5
20260902094141 80 309 0.0 1.0 0.00 0.00 0.00 73 1015.5
20260902093640 80 36 0.0 1.0 0.00 0.00 0.00 74 1015.5
20260902093135 80 0 0.0 1.0 0.00 0.00 0.00 73 1015.6
20260902092630 80 50 0.0 0.0 0.00 0.00 0.00 72 1015.6
20260902092125 81 36 1.0 1.0 0.00 0.00 0.00 73 1015.6
20260902091620 81 50 0.0 0.0 0.00 0.00 0.00 73 1015.5
20260902091117 81 71 0.0 0.0 0.00 0.00 0.00 71 1015.6
20260902090612 81 53 0.0 1.0 0.00 0.00 0.00 72 1015.6
20260902090111 80 38 0.0 0.0 0.00 0.00 0.00 73 1015.6
20260902085606 80 352 0.0 0.0 0.00 0.00 0.00 73 1015.6
20260902085101 80 44 0.0 0.0 0.00 0.00 0.00 72 1015.6
20260902084557 80 25 0.0 0.0 0.00 0.00 0.00 72 1015.8
20260902084053 80 25 0.0 0.0 0.00 0.00 0.00 71 1015.8
20260902083548 81 25 0.0 0.0 0.00 0.00 0.00 71 1015.6
20260902083047 81 25 0.0 0.0 0.00 0.00 0.00 71 1015.6
20260902082543 81 345 0.0 0.0 0.00 0.00 0.00 71 1015.7
20260902082039 81 50 0.0 0.0 0.00 0.00 0.00 72 1015.8
20260902081536 81 50 0.0 0.0 0.00 0.00 0.00 73 1015.7
20260902081035 81 22 0.0 1.0 0.00 0.00 0.00 71 1015.8
20260902080531 81 333 0.0 0.0 0.00 0.00 0.00 71 1015.6
20260902080027 81 37 0.0 0.0 0.00 0.00 0.00 71 1015.7
20260902075527 82 37 0.0 0.0 0.00 0.00 0.00 71 1015.8
20260902075023 82 44 0.0 0.0 0.00 0.00 0.00 70 1015.7
20260902074518 82 343 0.0 0.0 0.00 0.00 0.00 71 1015.7
20260902074013 82 333 0.0 0.0 0.00 0.00 0.00 70 1015.7
20260902073509 82 333 0.0 0.0 0.00 0.00 0.00 72 1015.8
20260902073006 82 333 0.0 0.0 0.00 0.00 0.00 71 1015.7
20260902072500 82 50 0.0 0.0 0.00 0.00 0.00 71 1015.7
20260902071956 82 62 0.0 0.0 0.00 0.00 0.00 71 1015.9
20260902071456 82 66 0.0 0.0 0.00 0.00 0.00 71 1016.1
20260902070952 83 19 0.0 1.0 0.00 0.00 0.00 71 1015.9
20260902070448 83 75 0.0 0.0 0.00 0.00 0.00 71 1015.9
20260902065947 83 44 0.0 0.0 0.00 0.00 0.00 70 1016.1
20260902065442 83 37 0.0 0.0 0.00 0.00 0.00 70 1016.1
20260902064937 83 25 0.0 0.0 0.00 0.00 0.00 71 1015.9
20260902064433 83 38 0.0 0.0 0.00 0.00 0.00 71 1015.9
20260902063928 83 50 0.0 0.0 0.00 0.00 0.00 71 1016.0
20260902063428 84 54 0.0 0.0 0.00 0.00 0.00 71 1015.8
20260902062923 84 29 1.0 1.0 0.00 0.00 0.00 70 1016.1
20260902062423 84 44 0.0 1.0 0.00 0.00 0.00 70 1015.9
20260902061923 84 339 0.0 2.0 0.00 0.00 0.00 70 1015.7
20260902061418 84 75 0.0 0.0 0.00 0.00 0.00 69 1015.9
20260902060914 84 89 0.0 0.0 0.00 0.00 0.00 69 1015.9
20260902060410 84 35 0.0 0.0 0.00 0.00 0.00 69 1015.9
20260902055905 84 53 0.0 0.0 0.00 0.00 0.00 68 1015.7
20260902055401 84 53 0.0 0.0 0.00 0.00 0.00 69 1015.9
20260902054857 84 50 0.0 0.0 0.00 0.00 0.00 68 1015.9
20260902054352 85 25 0.0 0.0 0.00 0.00 0.00 68 1015.8
20260902053847 85 37 0.0 0.0 0.00 0.00 0.00 68 1015.8
20260902053342 85 322 0.0 2.0 0.00 0.00 0.00 68 1015.8
20260902052841 85 25 0.0 0.0 0.00 0.00 0.00 68 1015.8
20260902052337 85 37 0.0 0.0 0.00 0.00 0.00 67 1015.7
20260902051832 85 15 0.0 0.0 0.00 0.00 0.00 67 1015.8
20260902051332 85 15 0.0 0.0 0.00 0.00 0.00 67 1015.8
20260902050832 86 212 0.0 0.0 0.00 0.00 0.00 66 1015.7
20260902050331 86 11 2.0 2.0 0.00 0.00 0.00 66 1015.9
20260902045826 86 32 0.0 0.0 0.00 0.00 0.00 65 1015.9
20260902045322 86 60 0.0 1.0 0.00 0.00 0.00 66 1015.7
20260902044818 86 44 0.0 1.0 0.00 0.00 0.00 65 1015.9
20260902044314 86 50 0.0 1.0 0.00 0.00 0.00 65 1016.0
20260902043813 87 22 0.0 2.0 0.00 0.00 0.00 64 1015.9
20260902043309 87 309 0.0 2.0 0.00 0.00 0.00 64 1015.8
20260902042808 87 15 0.0 0.0 0.00 0.00 0.00 64 1015.7
20260902042308 87 32 0.0 2.0 0.00 0.00 0.00 63 1015.9
20260902041759 87 66 0.0 0.0 0.00 0.00 0.00 64 1015.8
20260902041258 87 353 0.0 1.0 0.00 0.00 0.00 63 1015.8
20260902040757 87 0 0.0 0.0 0.00 0.00 0.00 63 1015.9
20260902040253 87 6 0.0 1.0 0.00 0.00 0.00 62 1015.8
20260902035751 87 25 0.0 2.0 0.00 0.00 0.00 61 1015.6
20260902035248 87 22 0.0 0.0 0.00 0.00 0.00 61 1015.6
20260902034746 87 32 0.0 1.0 0.00 0.00 0.00 61 1015.5
20260902034241 87 343 0.0 1.0 0.00 0.00 0.00 59 1015.5
20260902033739 87 44 0.0 2.0 0.00 0.00 0.00 60 1015.4
20260902033235 87 321 0.0 0.0 0.00 0.00 0.00 60 1015.5
20260902032733 87 17 0.0 1.0 0.00 0.00 0.00 60 1015.4
20260902032229 88 352 1.0 1.0 0.00 0.00 0.00 60 1015.3
20260902031728 87 37 0.0 0.0 0.00 0.00 0.00 60 1015.3
20260902031224 87 15 0.0 0.0 0.00 0.00 0.00 60 1015.1
20260902030720 88 6 0.0 0.0 0.00 0.00 0.00 60 1015.1
20260902030220 88 6 0.0 0.0 0.00 0.00 0.00 59 1015.0
20260902025719 88 6 0.0 1.0 0.00 0.00 0.00 59 1014.9
20260902025215 88 44 0.0 1.0 0.00 0.00 0.00 59 1015.1
20260902024715 88 6 0.0 1.0 0.00 0.00 0.00 60 1014.6
20260902024210 88 15 0.0 1.0 0.00 0.00 0.00 59 1014.5
20260902023706 89 25 0.0 0.0 0.00 0.00 0.00 60 1014.6
20260902023201 89 37 0.0 0.0 0.00 0.00 0.00 59 1014.4
20260902022700 89 37 0.0 0.0 0.00 0.00 0.00 58 1014.4
20260902022156 89 271 0.0 0.0 0.00 0.00 0.00 58 1014.3
20260902021652 89 230 0.0 2.0 0.00 0.00 0.00 56 1014.2
20260902021152 90 75 0.0 0.0 0.00 0.00 0.00 56 1014.2
20260902020648 90 37 0.0 1.0 0.00 0.00 0.00 55 1014.0
20260902020143 90 24 0.0 1.0 0.00 0.00 0.00 55 1013.9
20260902015639 90 34 0.0 1.0 0.00 0.00 0.00 55 1014.0
20260902015135 91 174 0.0 1.0 0.00 0.00 0.00 53 1014.0
20260902014631 91 55 0.0 0.0 0.00 0.00 0.00 53 1013.8
20260902014126 91 37 0.0 1.0 0.00 0.00 0.00 53 1013.8
20260902013625 91 37 0.0 0.0 0.00 0.00 0.00 52 1013.7
20260902013121 91 230 0.0 2.0 0.00 0.00 0.00 51 1013.7
20260902012616 91 117 0.0 0.0 0.00 0.00 0.00 50 1013.8
20260902012112 92 309 0.0 0.0 0.00 0.00 0.00 50 1013.4
20260902011608 92 309 0.0 0.0 0.00 0.00 0.00 49 1013.3
20260902011107 92 297 0.0 1.0 0.00 0.00 0.00 49 1013.3
20260902010607 92 37 0.0 0.0 0.00 0.00 0.00 49 1013.4
20260902005600 93 322 0.0 0.0 0.00 0.00 0.00 47 1013.3
20260902005056 93 322 0.0 1.0 0.00 0.00 0.00 47 1013.4
20260902004555 94 76 0.0 0.0 0.00 0.00 0.00 47 1013.4
20260902004051 94 38 0.0 0.0 0.00 0.00 0.00 47 1013.4
20260902003546 94 349 0.0 1.0 0.00 0.00 0.00 46 1013.5
20260902003041 95 15 0.0 0.0 0.00 0.00 0.00 47 1013.7
20260902002538 95 107 0.0 1.0 0.00 0.00 0.00 46 1013.5
20260902002032 95 333 0.0 0.0 0.00 0.00 0.00 47 1013.5
20260902001526 95 13 0.0 0.0 0.00 0.00 0.00 45 1013.4
20260902001022 95 326 0.0 2.0 0.00 0.00 0.00 44 1013.4
20260902000516 96 6 0.0 1.0 0.00 0.00 0.00 44 1013.6
20260902000012 96 7 1.0 1.0 0.00 0.00 0.00 44 1013.5
20260901235506 96 7 0.0 2.0 0.00 0.00 0.00 44 1013.5
20260901235002 96 333 0.0 1.0 0.00 0.00 0.00 44 1013.3
20260901234455 96 334 0.0 1.0 0.00 0.00 0.00 45 1013.5
20260901233956 96 309 0.0 0.0 0.00 0.00 0.00 45 1013.3
20260901233451 96 224 0.0 0.0 0.00 0.00 0.00 46 1013.5
20260901232947 96 319 0.0 1.0 0.00 0.00 0.00 45 1013.5
20260901232448 96 5 0.0 3.0 0.00 0.00 0.00 45 1013.5
20260901231943 96 311 0.0 2.0 0.00 0.00 0.00 45 1013.5
20260901231439 96 303 2.0 2.0 0.00 0.00 0.00 44 1013.3
20260901230936 96 329 0.0 1.0 0.00 0.00 0.00 43 1013.4
20260901230435 96 19 0.0 2.0 0.00 0.00 0.00 44 1013.2
20260901225931 97 352 0.0 2.0 0.00 0.00 0.00 43 1013.5
20260901225430 97 11 1.0 1.0 0.00 0.00 0.00 44 1013.4
20260901224925 97 309 0.0 2.0 0.00 0.00 0.00 43 1013.6
20260901224421 97 333 1.0 2.0 0.00 0.00 0.00 43 1013.4
20260901223917 98 299 0.0 2.0 0.00 0.00 0.00 42 1013.5
20260901223412 99 322 0.0 1.0 0.00 0.00 0.00 41 1013.4
20260901222908 99 5 0.0 1.0 0.00 0.00 0.00 42 1013.4
20260901222404 99 315 0.0 4.0 0.00 0.00 0.00 41 1013.4
20260901221900 99 295 2.0 2.0 0.00 0.00 0.00 41 1013.6
20260901221356 98 333 0.0 2.0 0.00 0.00 0.00 41 1013.5
20260901220856 98 311 1.0 2.0 0.00 0.00 0.00 41 1013.5
20260901220354 98 297 0.0 1.0 0.00 0.00 0.00 41 1013.3
20260901215853 100 319 2.0 3.0 0.00 0.00 0.00 40 1013.5
20260901215353 100 321 1.0 3.0 0.00 0.00 0.00 39 1013.3
20260901214852 100 307 1.0 2.0 0.00 0.00 0.00 40 1013.4
20260901214351 100 316 0.0 2.0 0.00 0.00 0.00 40 1013.4
20260901213850 99 23 0.0 2.0 0.00 0.00 0.00 40 1013.5
20260901213345 100 319 0.0 2.0 0.00 0.00 0.00 40 1013.4
20260901212839 100 208 2.0 2.0 0.00 0.00 0.00 40 1013.5
20260901212335 99 304 1.0 2.0 0.00 0.00 0.00 40 1013.6
20260901211831 99 326 2.0 3.0 0.00 0.00 0.00 41 1013.7
20260901211327 100 313 0.0 1.0 0.00 0.00 0.00 40 1013.5
20260901210822 101 339 2.0 3.0 0.00 0.00 0.00 38 1013.7
20260901210318 103 304 0.0 2.0 0.00 0.00 0.00 37 1013.9
20260901205814 104 312 1.0 3.0 0.00 0.00 0.00 37 1013.8
20260901205314 104 271 2.0 2.0 0.00 0.00 0.00 36 1014.1
20260901204809 105 306 0.0 2.0 0.00 0.00 0.00 36 1014.1
20260901204306 103 0 0.0 2.0 0.00 0.00 0.00 37 1014.1
20260901203805 104 342 3.0 3.0 0.00 0.00 0.00 36 1014.2
20260901203300 102 286 0.0 3.0 0.00 0.00 0.00 38 1014.3
20260901202800 100 258 0.0 0.0 0.00 0.00 0.00 39 1014.5
20260901202255 98 333 0.0 2.0 0.00 0.00 0.00 42 1014.6
20260901201751 100 336 1.0 1.0 0.00 0.00 0.00 42 1014.8
20260901201250 99 319 0.0 2.0 0.00 0.00 0.00 40 1014.6
20260901200750 101 332 1.0 2.0 0.00 0.00 0.00 40 1014.8
20260901200246 102 285 1.0 2.0 0.00 0.00 0.00 39 1015.0
20260901195743 103 300 0.0 2.0 0.00 0.00 0.00 39 1015.0
20260901195238 103 277 2.0 3.0 0.00 0.00 0.00 39 1015.1
20260901194734 104 333 2.0 3.0 0.00 0.00 0.00 38 1015.2
20260901194234 102 5 0.0 2.0 0.00 0.00 0.00 40 1015.1
20260901193730 98 11 0.0 3.0 0.00 0.00 0.00 44 1015.3
20260901193229 102 305 0.0 3.0 0.00 0.00 0.00 41 1015.3
20260901192724 103 197 0.0 2.0 0.00 0.00 0.00 39 1015.3
20260901192219 104 359 0.0 2.0 0.00 0.00 0.00 39 1015.3
20260901191715 103 297 0.0 2.0 0.00 0.00 0.00 40 1015.4
20260901191211 102 302 0.0 3.0 0.00 0.00 0.00 39 1015.5
20260901190706 103 324 0.0 2.0 0.00 0.00 0.00 39 1015.5
20260901190206 103 341 2.0 2.0 0.00 0.00 0.00 39 1015.5
20260901185704 102 224 0.0 2.0 0.00 0.00 0.00 41 1015.7
20260901185202 100 328 2.0 2.0 0.00 0.00 0.00 43 1015.9
20260901184659 100 5 0.0 2.0 0.00 0.00 0.00 43 1015.9
20260901184154 100 342 0.0 3.0 0.00 0.00 0.00 43 1015.9
20260901183649 102 234 1.0 2.0 0.00 0.00 0.00 41 1016.1
20260901183149 101 276 2.0 2.0 0.00 0.00 0.00 42 1016.1
20260901182646 101 291 2.0 2.0 0.00 0.00 0.00 42 1016.4
20260901182144 99 15 0.0 3.0 0.00 0.00 0.00 44 1016.3
20260901181639 101 13 0.0 2.0 0.00 0.00 0.00 43 1016.4
20260901181133 101 320 1.0 2.0 0.00 0.00 0.00 43 1016.6
20260901180628 99 326 2.0 2.0 0.00 0.00 0.00 43 1016.6
20260901180122 98 267 0.0 3.0 0.00 0.00 0.00 44 1016.7
20260901175621 99 284 0.0 1.0 0.00 0.00 0.00 44 1016.7
20260901175116 98 63 0.0 2.0 0.00 0.00 0.00 45 1016.9
20260901174611 98 307 0.0 2.0 0.00 0.00 0.00 45 1016.8
20260901174107 100 317 0.0 2.0 0.00 0.00 0.00 44 1017.0
20260901173607 99 261 0.0 2.0 0.00 0.00 0.00 45 1017.0
20260901173103 98 233 0.0 3.0 0.00 0.00 0.00 46 1017.1
20260901172558 99 284 2.0 2.0 0.00 0.00 0.00 45 1017.1
20260901172056 98 220 3.0 3.0 0.00 0.00 0.00 46 1017.3
20260901171555 98 224 0.0 0.0 0.00 0.00 0.00 46 1017.2
20260901171050 96 15 0.0 1.0 0.00 0.00 0.00 47 1017.3
20260901170549 95 154 0.0 2.0 0.00 0.00 0.00 48 1017.4
20260901170045 93 205 0.0 0.0 0.00 0.00 0.00 52 1017.5
20260901165544 91 73 0.0 2.0 0.00 0.00 0.00 55 1017.4
20260901165039 91 269 0.0 2.0 0.00 0.00 0.00 54 1017.6
20260901164535 91 63 1.0 3.0 0.00 0.00 0.00 55 1017.6
20260901164030 90 269 0.0 2.0 0.00 0.00 0.00 56 1017.5
20260901163525 90 145 0.0 0.0 0.00 0.00 0.00 57 1017.6
20260901163024 89 290 0.0 1.0 0.00 0.00 0.00 57 1017.6
20260901162520 89 230 0.0 2.0 0.00 0.00 0.00 58 1017.7
20260901162019 89 25 0.0 0.0 0.00 0.00 0.00 59 1017.7
20260901161518 88 170 0.0 2.0 0.00 0.00 0.00 59 1017.8
20260901161018 88 44 0.0 1.0 0.00 0.00 0.00 62 1017.8
20260901160514 88 283 0.0 1.0 0.00 0.00 0.00 60 1017.8
20260901160015 87 19 0.0 0.0 0.00 0.00 0.00 63 1017.7
20260901155514 87 333 0.0 2.0 0.00 0.00 0.00 63 1017.8
20260901155010 87 143 3.0 5.0 0.00 0.00 0.00 63 1017.8
20260901154509 87 120 2.0 3.0 0.00 0.00 0.00 64 1017.9
20260901154004 86 255 0.0 1.0 0.00 0.00 0.00 65 1017.8
20260901153459 86 80 0.0 2.0 0.00 0.00 0.00 66 1017.8
20260901152959 86 347 0.0 2.0 0.00 0.00 0.00 65 1018.0
20260901152459 86 351 0.0 2.0 0.00 0.00 0.00 66 1017.6
20260901151958 85 40 0.0 1.0 0.00 0.00 0.00 66 1017.7
20260901151453 85 297 0.0 1.0 0.00 0.00 0.00 67 1017.7
20260901150953 85 112 1.0 2.0 0.00 0.00 0.00 69 1017.7
20260901150450 85 62 0.0 2.0 0.00 0.00 0.00 68 1017.7
20260901145948 84 15 0.0 2.0 0.00 0.00 0.00 72 1017.7
20260901145443 84 21 1.0 2.0 0.00 0.00 0.00 72 1017.7
20260901144937 83 291 0.0 2.0 0.00 0.00 0.00 75 1017.8
20260901144433 83 73 0.0 2.0 0.00 0.00 0.00 75 1017.9
20260901143928 83 77 0.0 2.0 0.00 0.00 0.00 77 1017.9
20260901143424 82 25 0.0 1.0 0.00 0.00 0.00 78 1017.8
20260901142920 82 91 1.0 2.0 0.00 0.00 0.00 79 1017.9
20260901142420 82 96 1.0 1.0 0.00 0.00 0.00 80 1018.0
20260901141915 82 164 0.0 2.0 0.00 0.00 0.00 80 1018.0
20260901141410 81 190 0.0 2.0 0.00 0.00 0.00 80 1018.2
20260901140909 81 16 1.0 2.0 0.00 0.00 0.00 82 1018.3
20260901140407 81 52 0.0 1.0 0.00 0.00 0.00 81 1018.3
20260901135902 81 269 0.0 0.0 0.00 0.00 0.00 82 1018.2
20260901135357 80 89 0.0 1.0 0.00 0.00 0.00 83 1018.2
20260901134854 80 113 1.0 2.0 0.00 0.00 0.00 84 1018.1
20260901134349 80 34 0.0 2.0 0.00 0.00 0.00 85 1017.9
20260901133848 80 200 1.0 2.0 0.00 0.00 0.00 85 1018.0
20260901133348 79 71 1.0 2.0 0.00 0.00 0.00 85 1017.9
20260901132847 79 60 1.0 3.0 0.00 0.00 0.00 86 1017.9
20260901132342 79 27 1.0 2.0 0.00 0.00 0.00 87 1017.9
20260901131841 78 18 0.0 2.0 0.00 0.00 0.00 87 1017.8
20260901131340 78 48 1.0 2.0 0.00 0.00 0.00 87 1017.6
20260901130835 78 42 1.0 2.0 0.00 0.00 0.00 88 1017.8
20260901130330 78 338 1.0 2.0 0.00 0.00 0.00 88 1017.7
20260901125829 78 331 0.0 1.0 0.00 0.00 0.00 88 1017.6
20260901125328 77 346 1.0 2.0 0.00 0.00 0.00 88 1017.5
20260901124823 77 39 0.0 1.0 0.00 0.00 0.00 88 1017.3
20260901124318 77 333 0.0 1.0 0.00 0.00 0.00 88 1017.3
20260901123817 77 352 0.0 0.0 0.00 0.00 0.00 88 1017.4
20260901123313 77 50 0.0 0.0 0.00 0.00 0.00 88 1017.4
20260901122812 77 57 0.0 1.0 0.00 0.00 0.00 88 1017.3
20260901122312 77 19 0.0 1.0 0.00 0.00 0.00 88 1017.1
20260901121811 77 32 0.0 1.0 0.00 0.00 0.00 88 1017.2
20260901121307 77 15 0.0 0.0 0.00 0.00 0.00 88 1016.9
20260901120807 77 50 0.0 1.0 0.00 0.00 0.00 88 1017.1
20260901120301 77 44 0.0 1.0 0.00 0.00 0.00 87 1017.0
20260901115756 78 31 0.0 2.0 0.00 0.00 0.00 87 1017.2
20260901115252 78 230 0.0 0.0 0.00 0.00 0.00 87 1017.0
20260901114749 78 336 0.0 0.0 0.00 0.00 0.00 87 1017.0
20260901114244 78 25 0.0 0.0 0.00 0.00 0.00 87 1017.1
20260901113742 78 66 0.0 1.0 0.00 0.00 0.00 87 1017.0
20260901113238 78 89 0.0 1.0 0.00 0.00 0.00 87 1017.1
20260901112737 78 110 0.0 0.0 0.00 0.00 0.00 87 1017.1
20260901112237 78 212 0.0 1.0 0.00 0.00 0.00 87 1017.0
20260901111732 78 326 0.0 0.0 0.00 0.00 0.00 87 1016.9
20260901111226 78 253 0.0 0.0 0.00 0.00 0.00 86 1017.0
20260901110725 78 17 0.0 0.0 0.00 0.00 0.00 86 1016.9
20260901110221 78 54 0.0 1.0 0.00 0.00 0.00 86 1016.9
20260901105718 79 269 0.0 0.0 0.00 0.00 0.00 86 1017.1
20260901105217 79 63 0.0 1.0 0.00 0.00 0.00 86 1016.9
20260901104713 79 322 0.0 0.0 0.00 0.00 0.00 86 1016.7
20260901104208 79 91 0.0 1.0 0.00 0.00 0.00 86 1016.8
20260901103707 79 25 0.0 1.0 0.00 0.00 0.00 86 1016.8
20260901103203 79 96 2.0 2.0 0.00 0.00 0.00 85 1016.8
20260901102703 79 93 1.0 2.0 0.00 0.00 0.00 85 1016.6
20260901102203 79 99 0.0 1.0 0.00 0.00 0.00 85 1016.8